[[{"header":{"parameterUnit":"m.s-1","parameterCategory":1,"la1":30.2991,"la2":30.254,"lo1":-89.0895,"lo2":-89.0444,"dy":0.0017,"dx":0.0017,"nx":28,"ny":28,"refTime":"2025-01-30T09:00:00:Z","depth":0,"parameterNumber":2,"parameterNumberName":"U-component_of_WINDS"},"data":[0,0,0,0,0,0,0,0,0,0,0,0,0,0,0,0,0,0,0,0,0,0,0,0,0,0,0,0,0,0,0,0,0,0,0,0,0,0,0,0,0,0,0,0,0,0,0,0,0,0,0,0,0,0,0,0,0,0,3.1369,3.1369,0,3.1342,3.1342,3.1342,3.1281,3.128,3.1279,3.1278,3.1251,3.1252,3.1252,0,0,0,0,0,0,0,0,0,0,0,0,0,3.1369,3.137,3.1369,3.1369,3.1368,3.1342,3.1342,3.1342,3.1282,3.128,3.1279,3.1277,3.1251,3.1252,3.1252,0,0,0,0,0,0,0,0,0,0,0,0,0,3.1359,3.137,3.1369,3.1335,3.1332,3.1343,3.1342,3.1342,3.1282,3.128,3.1278,3.1276,3.1251,3.1252,3.1252,3.1294,0,0,3.1255,3.1255,0,0,0,0,0,0,0,0,3.1359,3.1359,3.134,3.1338,3.1334,3.1313,3.1333,3.1326,3.1282,3.1301,3.1278,3.1276,3.1274,3.1272,3.1271,3.1293,3.1292,3.1255,3.1255,3.1255,3.1256,0,0,0,0,0,0,0,3.136,3.136,3.1358,3.134,3.1336,3.1322,3.1318,3.1331,3.1298,3.1299,3.1295,3.1292,3.1271,3.1271,3.127,3.1291,3.1255,3.1255,3.1256,3.1256,3.1347,3.1348,0,0,0,0,0,0,3.1366,3.1361,3.1359,3.1358,3.1342,3.1323,3.1319,3.1322,3.1298,3.1292,3.1294,3.129,3.1271,3.127,3.1269,3.1317,3.1255,3.1256,3.1256,3.1345,3.1347,3.1349,0,0,0,0,0,0,3.1366,3.1366,3.136,3.1358,3.1356,3.1325,3.1329,3.1322,3.1322,3.1294,3.1288,3.1299,3.1269,3.1268,3.1289,3.1315,3.1256,3.1257,3.1342,3.1345,3.1348,3.1412,0,0,0,0,0,0,3.1366,3.1367,3.1382,3.1359,3.1356,3.138,3.133,3.1323,3.1323,3.1317,3.1297,3.1292,3.1268,3.1288,3.1289,3.1315,3.1258,3.134,3.1344,3.1347,3.1407,3.1416,3.1424,0,0,0,0,0,3.1366,3.1401,3.1383,3.1383,3.1375,3.1381,3.138,3.1351,3.1325,3.134,3.1323,3.1293,3.1312,3.129,3.1291,3.1318,3.1338,3.1343,3.1347,3.1403,3.1415,3.1424,0,0,0,0,0,0,3.1427,3.1397,3.1377,3.1404,3.1396,3.1371,3.1389,3.1364,3.1362,3.1357,3.1321,3.1317,3.1342,3.1332,3.1309,3.1357,3.132,3.1325,3.1363,3.1373,3.1382,3.1383,3.1258,0,0,0,0,0,3.1444,3.1452,3.1425,3.1452,3.1449,3.142,3.1422,3.14,3.139,3.1386,3.137,3.1362,3.1366,3.1369,3.1371,3.1406,3.1401,3.1424,3.1433,3.144,3.1445,3.1463,3.1473,3.1364,3.1364,3.1364,0,0,3.1479,3.1463,3.147,3.1464,3.1455,3.1464,3.1417,3.1429,3.1435,3.1388,3.1406,3.1394,3.1382,3.141,3.1422,3.1402,3.1474,3.1446,3.1452,3.1452,3.1468,3.1479,3.1488,3.1367,3.1366,3.1366,0,0,3.1546,3.1535,3.1556,3.1548,3.1535,3.1516,3.1521,3.1501,3.1491,3.1508,3.1473,3.1481,3.1489,3.1482,3.148,3.1546,3.1519,3.1548,3.1593,3.1611,3.162,3.1627,3.1651,3.166,3.1553,3.1553,3.1553,0,3.1591,3.1602,3.1571,3.1585,3.1583,3.1541,3.1563,3.1557,3.1545,3.1546,3.1524,3.1534,3.1523,3.1549,3.1565,3.1565,3.157,3.155,3.1621,3.1628,3.1635,3.1657,3.1666,3.1557,3.1556,3.1556,3.1556,0,3.1658,3.1667,3.1686,3.1676,3.1677,3.1695,3.1666,3.1671,3.165,3.1633,3.1652,3.1638,3.1637,3.1642,3.1621,3.1665,3.1654,3.1628,3.1589,3.1649,3.1669,3.1678,3.1562,3.1561,3.1559,3.1559,0,0,3.1762,3.1734,3.1742,3.1737,3.172,3.1727,3.1743,3.1742,3.1747,3.1741,3.1754,3.1763,3.1738,3.1736,3.1714,3.173,3.1784,3.1702,3.1701,3.1717,3.1832,3.1851,3.1861,3.1766,3.1768,3.1769,3.1833,0,3.1825,3.185,3.1823,3.1855,3.1863,3.1824,3.1838,3.183,3.1815,3.1821,3.1805,3.1811,3.1779,3.1777,3.1791,3.1775,3.1807,3.177,3.1778,3.1779,3.1782,3.1872,3.1892,3.1953,3.184,3.1842,3.1843,0,3.1901,3.1898,3.1931,3.1913,3.1915,3.1928,3.1925,3.1931,3.1921,3.191,3.1908,3.1882,3.1897,3.1861,3.1883,3.1858,3.1861,3.1853,3.1855,3.1854,3.1814,3.1873,3.1971,3.198,3.1855,3.1854,3.1853,0,3.1973,3.1978,3.1998,3.1995,3.1974,3.1985,3.1977,3.1965,3.1966,3.1964,3.1965,3.1965,3.1965,3.1966,3.1941,3.1917,3.1966,3.1927,3.1956,3.1957,3.1967,3.1967,3.2067,3.197,3.197,3.197,3.197,0,3.2046,3.2067,3.203,3.2043,3.2066,3.2035,3.2059,3.2047,3.2037,3.2047,3.2014,3.2024,3.199,3.1997,3.1978,3.1999,3.1999,3.1991,3.1985,3.1993,3.1994,3.1993,3.1988,3.1972,3.1972,3.1972,3.1971,0,3.213,3.2106,3.2125,3.2104,3.21,3.2118,3.21,3.2111,3.2094,3.2107,3.2109,3.2083,3.209,3.2065,3.2068,3.2055,3.2086,3.2074,3.2089,3.2085,3.2115,3.2113,3.2218,3.223,3.2126,3.2127,3.2128,0,3.2178,3.2193,3.2174,3.2178,3.2171,3.2178,3.2179,3.215,3.2153,3.2144,3.2156,3.216,3.2161,3.2173,3.2155,3.2157,3.2144,3.2181,3.2144,3.2152,3.2145,3.2144,3.2145,3.2189,3.219,3.2191,3.2192,0,3.2265,3.2252,3.2255,3.2254,3.2256,3.2254,3.225,3.2255,3.2224,3.2229,3.2235,3.2236,3.2239,3.2243,3.2241,3.2233,3.2208,3.2204,3.221,3.2218,3.2226,3.2222,3.2109,3.2201,3.22,3.22,3.2199,3.2199,3.2331,3.2344,3.2332,3.2336,3.233,3.2327,3.2336,3.2321,3.2326,3.2325,3.2308,3.2318,3.2308,3.2304,3.2299,3.2306,3.2289,3.2299,3.2301,3.2304,3.2309,3.2226,3.2306,3.2306,3.2305,3.2305,3.2305,0,3.2416,3.2407,3.2412,3.2407,3.241,3.2386,3.238,3.2385,3.2394,3.2387,3.2389,3.2397,3.2401,3.2384,3.2386,3.2395,3.2384,3.2397,3.2395,3.2394,3.2324,3.2318,3.2406,3.2406,3.2406,3.2406,3.2406,3.2406,3.2461,3.248,3.2467,3.2483,3.2474,3.2482,3.2481,3.2479,3.2473,3.2483,3.2486,3.2475,3.2464,3.2465,3.2468,3.2463,3.2465,3.2483,3.2474,3.2409,3.2399,3.2389,3.2383,3.2484,3.2484,3.2542,3.2543,3.2543]},{"header":{"parameterUnit":"m.s-1","parameterCategory":1,"la1":30.2991,"la2":30.254,"lo1":-89.0895,"lo2":-89.0444,"dy":0.0017,"dx":0.0017,"nx":28,"ny":28,"refTime":"2025-01-30T09:00:00:Z","depth":0,"parameterNumber":3,"parameterNumberName":"V-component_of_WINDS"},"data":[0,0,0,0,0,0,0,0,0,0,0,0,0,0,0,0,0,0,0,0,0,0,0,0,0,0,0,0,0,0,0,0,0,0,0,0,0,0,0,0,0,0,0,0,0,0,0,0,0,0,0,0,0,0,0,0,0,0,-0.5052,-0.505,0,-0.4863,-0.4861,-0.4859,-0.4799,-0.48,-0.48,-0.4801,-0.4603,-0.4597,-0.4591,0,0,0,0,0,0,0,0,0,0,0,0,0,-0.5357,-0.5352,-0.5053,-0.505,-0.5048,-0.4864,-0.4861,-0.4859,-0.4799,-0.48,-0.4801,-0.4802,-0.4605,-0.4598,-0.459,0,0,0,0,0,0,0,0,0,0,0,0,0,-0.5202,-0.535,-0.5053,-0.4996,-0.4989,-0.4864,-0.4861,-0.4858,-0.4798,-0.48,-0.4801,-0.4802,-0.4607,-0.4598,-0.4589,-0.4507,0,0,-0.4561,-0.4558,0,0,0,0,0,0,0,0,-0.5211,-0.5191,-0.5007,-0.5,-0.4992,-0.4856,-0.4896,-0.474,-0.4798,-0.487,-0.4801,-0.4803,-0.4686,-0.467,-0.4632,-0.4497,-0.4489,-0.4561,-0.4555,-0.4551,-0.4549,0,0,0,0,0,0,0,-0.5222,-0.5198,-0.4978,-0.5004,-0.4995,-0.4978,-0.4958,-0.4866,-0.4773,-0.4864,-0.4859,-0.4838,-0.4682,-0.4641,-0.4627,-0.4486,-0.4561,-0.4553,-0.4547,-0.4544,-0.4273,-0.4272,0,0,0,0,0,0,-0.5243,-0.5208,-0.4984,-0.4972,-0.5107,-0.4972,-0.4949,-0.4898,-0.4774,-0.4756,-0.4837,-0.4836,-0.4656,-0.4637,-0.4619,-0.4514,-0.4551,-0.4543,-0.4537,-0.4275,-0.4273,-0.4271,0,0,0,0,0,0,-0.5249,-0.5223,-0.4991,-0.5088,-0.5058,-0.4965,-0.4909,-0.4894,-0.4853,-0.4753,-0.4736,-0.4813,-0.4656,-0.4632,-0.4535,-0.4506,-0.4539,-0.453,-0.4277,-0.4274,-0.4272,-0.4302,0,0,0,0,0,0,-0.5258,-0.5226,-0.5195,-0.5088,-0.5053,-0.4912,-0.4907,-0.4889,-0.4838,-0.4834,-0.4726,-0.4709,-0.4655,-0.4549,-0.4526,-0.4494,-0.4523,-0.4279,-0.4276,-0.4273,-0.4303,-0.4301,-0.4299,0,0,0,0,0,-0.5269,-0.521,-0.5193,-0.5167,-0.5012,-0.491,-0.489,-0.483,-0.4836,-0.4802,-0.4739,-0.4712,-0.4513,-0.454,-0.4513,-0.4478,-0.4281,-0.4277,-0.4273,-0.4304,-0.4301,-0.4299,0,0,0,0,0,0,-0.5313,-0.5195,-0.5175,-0.508,-0.5006,-0.49,-0.4857,-0.4829,-0.4751,-0.4751,-0.4679,-0.4655,-0.4564,-0.4511,-0.4543,-0.4391,-0.4396,-0.4386,-0.4428,-0.4425,-0.4423,-0.4437,-0.4516,0,0,0,0,0,-0.5312,-0.5241,-0.5141,-0.5066,-0.503,-0.495,-0.4903,-0.4864,-0.4784,-0.4752,-0.4681,-0.4603,-0.4522,-0.4471,-0.4391,-0.4296,-0.4271,-0.4258,-0.4256,-0.4255,-0.4247,-0.4192,-0.4185,-0.4258,-0.4258,-0.4258,0,0,-0.5308,-0.5235,-0.5194,-0.5073,-0.5011,-0.4937,-0.4924,-0.4846,-0.4791,-0.4739,-0.4644,-0.4589,-0.4497,-0.44,-0.4354,-0.4354,-0.4222,-0.425,-0.425,-0.4242,-0.4187,-0.418,-0.4174,-0.4256,-0.4256,-0.4257,0,0,-0.5264,-0.5202,-0.5133,-0.5071,-0.4978,-0.4925,-0.4909,-0.4807,-0.4769,-0.4673,-0.4633,-0.4565,-0.4428,-0.4364,-0.4313,-0.4245,-0.4218,-0.4221,-0.4209,-0.4156,-0.415,-0.4145,-0.4119,-0.4111,-0.4214,-0.4214,-0.4214,0,-0.527,-0.5159,-0.51,-0.5025,-0.4972,-0.4924,-0.4853,-0.4795,-0.4681,-0.4645,-0.4646,-0.4474,-0.4409,-0.4296,-0.4279,-0.424,-0.4218,-0.4233,-0.4156,-0.415,-0.4144,-0.4119,-0.411,-0.4215,-0.4215,-0.4215,-0.4215,0,-0.5172,-0.5095,-0.505,-0.4942,-0.4885,-0.4812,-0.474,-0.4688,-0.4654,-0.4601,-0.4503,-0.4423,-0.4326,-0.4297,-0.4262,-0.4179,-0.4181,-0.4171,-0.4174,-0.4139,-0.4114,-0.4104,-0.4217,-0.4216,-0.4216,-0.4216,0,0,-0.5148,-0.5009,-0.4994,-0.4944,-0.4838,-0.4777,-0.4701,-0.4608,-0.4565,-0.4488,-0.4421,-0.4307,-0.4297,-0.424,-0.4198,-0.4151,-0.4101,-0.4146,-0.4143,-0.414,-0.4003,-0.4011,-0.4001,-0.4083,-0.4081,-0.408,-0.4011,0,-0.5089,-0.4954,-0.4898,-0.4788,-0.4716,-0.467,-0.4604,-0.4531,-0.4479,-0.4409,-0.4351,-0.4272,-0.4264,-0.423,-0.4182,-0.4118,-0.4073,-0.4122,-0.4019,-0.4016,-0.4043,-0.3988,-0.3996,-0.3935,-0.4001,-0.3999,-0.3998,0,-0.5002,-0.4926,-0.4809,-0.4712,-0.4679,-0.4621,-0.4532,-0.4466,-0.4382,-0.4347,-0.4284,-0.4245,-0.4162,-0.4172,-0.4057,-0.4092,-0.4046,-0.4009,-0.4005,-0.3992,-0.4004,-0.3973,-0.3914,-0.3905,-0.3982,-0.3983,-0.3985,0,-0.4996,-0.4864,-0.4777,-0.4736,-0.462,-0.458,-0.453,-0.4447,-0.4395,-0.4316,-0.4281,-0.4194,-0.4145,-0.4078,-0.4015,-0.4028,-0.3905,-0.391,-0.3873,-0.3875,-0.3848,-0.385,-0.3781,-0.3821,-0.3821,-0.3821,-0.3822,0,-0.4935,-0.4865,-0.4772,-0.4719,-0.4638,-0.4575,-0.4497,-0.4443,-0.437,-0.4304,-0.4259,-0.4197,-0.4119,-0.4047,-0.3998,-0.3909,-0.3888,-0.3857,-0.3844,-0.386,-0.3864,-0.3828,-0.3831,-0.3819,-0.382,-0.382,-0.382,0,-0.4914,-0.4849,-0.4751,-0.465,-0.4623,-0.4569,-0.4482,-0.4427,-0.4374,-0.4291,-0.4267,-0.4183,-0.4096,-0.4028,-0.3914,-0.3881,-0.3788,-0.3774,-0.3816,-0.381,-0.3776,-0.378,-0.368,-0.3663,-0.3717,-0.3716,-0.3716,0,-0.4879,-0.4825,-0.4719,-0.4672,-0.4623,-0.4548,-0.4495,-0.443,-0.4376,-0.4276,-0.4233,-0.4144,-0.4069,-0.3932,-0.386,-0.3772,-0.3756,-0.3727,-0.3742,-0.376,-0.3754,-0.3758,-0.3752,-0.3725,-0.3725,-0.3724,-0.3724,0,-0.4824,-0.4795,-0.4721,-0.4635,-0.4573,-0.4503,-0.4431,-0.4395,-0.4316,-0.4258,-0.4169,-0.4111,-0.3996,-0.3907,-0.3813,-0.3759,-0.3728,-0.372,-0.3707,-0.3722,-0.3748,-0.3733,-0.3811,-0.3722,-0.3723,-0.3723,-0.3723,-0.3723,-0.4794,-0.4743,-0.466,-0.4579,-0.4519,-0.4453,-0.4396,-0.4337,-0.4262,-0.4165,-0.413,-0.4039,-0.3956,-0.3826,-0.3772,-0.3699,-0.3697,-0.3678,-0.3672,-0.3668,-0.367,-0.3761,-0.3681,-0.3681,-0.3681,-0.3681,-0.3681,0,-0.4735,-0.468,-0.4606,-0.4508,-0.4444,-0.4422,-0.4341,-0.4289,-0.421,-0.4135,-0.4063,-0.3961,-0.3875,-0.3796,-0.3706,-0.3662,-0.3646,-0.3641,-0.3643,-0.3631,-0.3677,-0.3698,-0.3656,-0.3656,-0.3656,-0.3656,-0.3656,-0.3656,-0.4697,-0.461,-0.4571,-0.4453,-0.4397,-0.4309,-0.4265,-0.4203,-0.4143,-0.4032,-0.3961,-0.3911,-0.3834,-0.3738,-0.3658,-0.3637,-0.3605,-0.3604,-0.3579,-0.3624,-0.3627,-0.3631,-0.3649,-0.3598,-0.3598,-0.3538,-0.3537,-0.3537]}]]